Probability
0 0 0 0 0 0 0 0 0 0 0 1 2 3 3 3 3 2 2 2 2 2 2 2 2 2 0 0 0 0 0 0 0 1 2 1 1 1 0 0 1 1 2 3
0 0 0 0 0 0 0 0 0 0 0 0 1 2 2 2 2 1 2 3 3 3 3 3 4 3 1 1 1 1 0 0 0 1 1 1 1 1 1 1 2 1 1 2
0 0 0 0 0 0 0 0 0 0 0 0 0 0 0 1 1 1 2 4 5 5 4 4 5 5 3 3 3 2 1 0 0 1 2 2 3 3 2 3 3 2 2 2
0 0 0 0 0 0 0 0 0 0 0 0 0 0 0 1 2 2 3 4 5 5 5 6 8 7 7 6 5 3 2 1 1 2 3 5 5 4 3 3 3 2 2 3
0 0 0 0 0 0 0 0 0 0 0 0 0 0 0 1 2 3 3 3 4 6 7 9 10 9 9 9 7 4 3 2 2 3 4 4 4 3 3 3 3 3 3 3
0 0 0 0 0 0 0 0 0 0 0 0 0 0 0 1 2 3 4 4 6 7 8 9 9 9 10 10 9 6 5 4 5 5 4 4 3 3 4 4 4 3 3 3
0 0 0 0 0 0 0 0 0 0 0 0 0 0 0 0 1 3 4 5 7 9 9 8 8 7 8 10 11 9 7 7 8 7 7 5 4 4 5 6 5 4 4 4
0 0 0 0 0 0 0 0 0 0 0 0 0 0 0 0 1 2 3 5 8 11 10 8 8 7 7 10 12 11 10 9 9 9 8 6 5 5 6 6 6 6 5 5
0 0 0 0 0 0 0 0 0 0 0 0 0 0 0 0 0 1 2 4 8 10 10 10 10 10 10 11 13 14 13 12 12 11 8 7 6 6 6 5 5 6 6 6
0 0 0 0 0 0 0 0 0 0 0 0 0 0 0 0 0 2 3 5 7 10 10 11 13 13 13 13 14 15 15 13 13 12 10 9 7 7 7 6 5 5 5 6
0 0 0 0 0 0 0 0 0 0 0 0 0 0 0 0 1 3 5 6 8 10 10 11 13 14 15 13 13 14 14 13 13 13 11 11 10 9 9 8 7 6 6 6
0 0 0 0 0 0 0 0 0 0 0 0 0 0 0 1 2 4 7 8 10 10 10 9 11 14 14 12 11 11 13 13 13 13 13 14 14 13 11 11 10 9 9 9
0 0 0 0 0 0 0 0 0 0 0 0 0 0 2 4 5 6 8 11 11 10 8 7 10 12 13 11 9 10 11 12 12 13 15 17 18 16 14 13 13 12 10 10
0 0 0 0 0 0 0 0 0 0 0 0 0 0 2 5 8 10 11 12 11 9 7 7 8 10 11 10 10 10 10 10 10 10 13 15 17 17 16 14 13 12 12 11
0 0 0 0 0 0 0 0 0 0 0 0 0 0 2 5 10 12 13 14 12 8 7 7 8 9 11 11 12 11 10 9 9 10 11 12 14 17 16 13 12 12 13 12
0 0 0 0 0 0 0 0 0 0 0 0 0 0 3 8 12 14 16 18 15 11 10 11 11 11 11 12 14 14 13 13 13 13 12 13 13 15 15 13 11 11 12 13
0 0 0 0 0 0 0 0 0 1 2 1 0 2 6 12 16 16 18 19 18 15 15 15 14 13 12 14 16 17 16 16 16 15 13 13 12 12 13 13 12 11 11 12
0 0 0 0 0 0 0 0 1 2 3 3 3 6 10 14 17 18 19 19 18 16 16 15 14 13 12 14 17 18 17 17 16 14 13 11 10 11 12 12 11 10 10 10
0 0 0 0 0 0 0 1 2 3 4 6 8 11 13 14 15 17 18 18 17 14 14 13 11 10 10 12 16 17 17 16 14 13 12 11 10 10 10 10 9 9 9 10
0 0 0 0 0 0 0 1 3 3 4 7 10 13 15 16 14 13 14 16 15 14 12 11 11 10 9 10 12 15 14 13 12 11 10 9 8 8 8 8 8 8 9 10
0 0 0 0 0 0 0 2 3 3 3 6 9 12 16 17 14 11 12 15 16 15 13 11 11 11 10 9 10 12 11 11 11 10 9 8 6 6 7 6 6 8 9 10
0 0 0 0 0 0 0 2 3 2 3 6 10 13 16 17 15 13 12 15 16 14 12 11 11 10 9 9 9 9 10 11 12 12 10 7 5 4 6 6 6 7 9 10
0 0 0 0 0 0 0 1 1 1 3 7 10 12 15 16 16 15 12 12 14 13 10 10 10 9 7 7 7 8 10 12 12 12 10 7 4 4 6 7 7 8 9 9
0 0 0 0 0 0 0 1 1 2 4 7 8 10 12 15 15 14 12 11 11 10 9 8 9 8 6 5 6 7 9 10 11 10 8 5 5 6 8 9 9 9 10 9
0 0 0 0 0 0 0 2 3 4 7 8 7 8 10 11 12 12 12 11 9 8 7 8 9 8 6 5 5 6 7 7 7 7 6 6 7 10 12 11 10 9 9 9
0 0 0 0 0 0 0 2 4 6 9 9 7 7 8 9 10 10 10 9 7 7 7 7 8 8 6 6 6 6 5 5 5 4 5 6 8 12 14 12 9 7 7 7
Wind_Speed
2 4 2 6 6 4 3 2 2 3 1 2 2 3 5 6 6 6 5 6 6 6 5 4 4 4 4 3 3 3 3 2 2 2 2 1 1 1 1 2 3 3 3 3
4 2 6 4 4 3 3 1 2 3 1 2 1 2 3 5 7 7 8 8 7 6 5 6 5 5 5 4 4 3 3 3 3 2 2 1 1 1 1 1 1 3 4 4
5 5 2 4 2 2 2 4 4 3 2 3 2 3 2 2 3 5 6 7 7 9 9 7 7 6 5 6 5 5 4 3 2 2 1 1 1 1 0 1 1 2 3 3
3 4 1 2 2 4 4 4 5 3 2 2 1 3 6 3 3 6 7 7 8 8 7 7 8 7 7 7 5 4 4 3 2 2 2 2 2 1 1 1 1 1 1 1
4 2 1 2 4 5 4 1 3 3 3 1 1 1 7 0 4 7 8 9 9 8 8 9 9 8 7 6 5 4 4 3 3 3 3 2 2 1 0 0 1 1 1 0
4 2 3 4 2 4 3 6 6 5 5 1 3 3 7 4 7 6 8 9 9 8 8 7 6 6 5 5 5 5 4 4 3 3 3 3 2 1 1 0 0 0 0 0
4 4 2 1 1 2 5 6 4 5 4 5 2 2 9 6 6 7 8 9 9 8 8 7 7 7 7 7 7 6 6 5 4 4 3 3 3 3 2 2 1 1 0 1
1 5 3 2 5 5 3 8 8 5 5 5 2 5 8 4 4 4 4 5 6 7 8 8 8 8 7 8 7 7 7 5 4 4 3 2 3 2 1 2 2 1 1 2
5 6 4 2 2 7 5 3 6 7 2 1 5 6 8 2 2 1 3 4 6 7 7 7 7 6 6 7 8 8 7 5 5 4 3 2 2 2 1 1 1 1 1 1
7 3 5 4 3 3 5 8 6 6 5 3 5 4 5 5 4 3 3 4 4 5 6 5 5 6 6 6 5 5 6 6 5 4 4 3 2 2 2 1 1 2 2 1
4 3 5 3 2 3 3 4 5 4 5 6 3 8 7 7 6 5 5 5 5 6 6 6 5 5 4 4 5 6 5 4 4 4 3 3 2 2 2 2 2 2 2 2
3 5 2 5 4 2 3 6 8 5 4 4 4 9 4 4 4 4 4 3 3 4 4 4 5 4 4 5 5 5 5 5 4 4 4 3 3 2 2 3 3 3 2 2
6 6 2 6 6 3 1 2 4 5 5 5 5 8 3 2 1 1 3 3 3 3 3 3 4 4 5 5 5 5 5 5 4 4 4 3 3 3 3 3 3 2 2 2
6 5 7 9 7 3 2 2 3 5 4 5 8 7 5 4 3 2 2 4 4 4 4 4 4 4 4 4 4 5 4 4 4 3 3 3 3 3 2 2 2 2 2 2
5 4 4 5 4 3 3 3 4 5 7 8 8 8 8 6 5 4 4 4 5 5 5 5 5 4 4 3 3 3 3 3 4 3 3 2 2 2 2 2 2 2 3 3
3 3 2 1 2 2 3 4 4 4 4 5 4 8 6 3 2 3 4 6 6 6 6 6 5 4 4 4 4 3 2 2 3 3 2 2 2 2 2 2 3 3 3 2
2 4 3 3 2 1 4 4 4 3 4 5 7 8 3 2 4 5 6 6 6 6 6 6 6 6 5 5 5 4 3 3 3 2 1 1 1 2 3 2 2 2 2 2
5 5 4 2 1 5 8 2 3 3 3 4 4 3 3 4 3 2 3 6 6 6 6 6 5 5 4 4 4 4 3 3 3 2 2 2 2 3 2 2 2 2 1 1
4 7 4 3 3 5 5 2 3 3 3 2 3 2 1 1 2 2 1 3 4 5 4 4 5 5 4 4 4 4 4 3 3 3 3 2 2 2 2 2 3 2 1 2
4 5 5 4 4 7 7 3 1 2 4 3 3 3 3 3 1 4 2 1 2 2 2 3 3 3 4 4 4 5 4 4 4 4 3 3 2 2 3 3 3 2 2 2
3 3 3 4 4 7 6 4 1 4 7 3 4 4 4 4 5 4 2 1 2 2 2 3 4 4 4 4 5 4 4 5 4 3 2 2 2 3 3 3 2 2 2 2
4 3 3 4 3 8 3 1 4 6 3 1 2 3 3 3 2 2 2 1 1 1 2 3 4 3 2 4 5 4 4 3 2 2 2 2 2 3 3 2 2 2 2 2
4 6 5 7 7 6 3 4 4 2 2 3 3 2 3 2 2 1 1 2 2 2 3 2 3 3 2 2 4 4 3 2 2 2 2 3 2 2 2 2 2 2 2 2
2 2 2 3 6 6 6 5 3 3 3 3 3 2 2 2 2 1 1 1 1 2 3 3 4 3 2 1 2 3 2 2 2 2 2 2 2 2 2 1 2 2 2 3
3 2 1 4 6 6 6 4 3 3 2 1 1 1 2 2 2 2 2 2 2 2 2 3 4 4 3 1 1 1 1 2 2 2 2 2 2 2 2 2 2 3 3 4
4 5 5 7 7 5 7 5 3 2 2 2 1 1 1 2 3 2 2 2 3 3 3 3 3 3 2 2 1 1 1 2 2 1 2 2 2 2 1 1 2 2 3 3
Wind_Direction
77 83 199 211 193 183 170 183 258 267 264 120 196 219 205 188 185 185 185 181 188 197 190 172 167 156 153 154 153 159 153 159 146 148 156 169 203 220 238 236 222 215 211 202
51 258 232 198 175 162 164 198 269 302 352 128 227 276 232 197 201 195 191 195 194 188 182 180 175 169 170 173 175 174 174 169 171 177 175 171 171 201 226 260 243 222 214 204
182 237 194 154 154 159 209 192 212 223 9 43 70 332 274 234 212 202 198 197 196 192 189 184 182 184 181 188 188 188 192 183 178 169 133 101 70 33 17 302 259 245 225 206
228 258 174 168 209 173 249 219 187 170 99 309 90 277 280 234 232 216 209 202 203 199 186 183 185 189 195 199 192 189 182 180 178 155 148 153 166 196 238 261 246 256 208 189
240 231 175 211 223 174 211 135 129 119 127 51 4 180 282 220 240 237 219 208 203 194 187 188 192 194 194 188 190 191 179 180 173 161 167 175 193 207 233 351 357 347 44 81
248 252 204 209 205 157 138 71 59 52 74 339 242 178 273 232 223 234 219 211 204 190 187 190 191 183 186 183 189 185 179 190 181 173 176 182 191 189 160 74 346 327 354 355
318 308 276 162 61 31 93 89 40 4 11 254 252 196 249 247 230 220 212 206 197 187 183 184 181 186 190 189 190 187 186 192 188 184 189 193 193 179 182 191 198 209 285 286
214 287 264 196 177 177 165 139 155 191 218 270 307 233 253 262 258 233 203 182 176 180 182 187 189 189 191 191 191 190 190 191 187 190 201 194 186 186 198 190 187 202 228 246
180 255 286 257 202 147 141 166 159 132 149 275 280 284 300 296 309 216 166 154 172 182 181 184 183 182 188 191 192 189 186 188 189 191 192 194 189 186 200 200 202 227 247 241
162 234 288 301 70 44 132 143 106 121 149 235 283 273 255 264 256 237 196 188 184 176 175 177 179 183 189 191 185 175 177 184 185 185 190 193 186 194 202 202 230 243 255 258
137 170 300 359 157 188 109 105 106 115 151 160 234 264 232 226 223 216 218 203 188 183 181 181 181 179 173 167 167 173 174 172 180 186 185 189 192 195 197 211 233 236 233 231
149 128 254 269 265 205 162 163 148 153 207 177 185 262 279 228 222 208 213 196 185 184 179 172 167 159 163 171 174 174 173 176 184 183 179 189 195 195 208 228 240 238 232 226
141 118 69 335 335 357 89 139 144 126 121 157 180 261 318 356 311 204 184 176 168 162 147 142 150 162 171 174 172 171 172 175 175 174 183 190 197 210 227 243 250 247 245 245
118 122 163 198 217 216 241 218 161 132 152 196 218 246 285 288 265 241 188 171 161 161 159 155 161 171 169 170 170 168 173 172 171 167 178 198 210 219 230 236 248 254 251 249
108 150 201 227 232 201 219 230 202 196 191 191 227 230 245 239 230 218 189 168 162 166 170 171 174 176 168 165 168 169 168 169 170 166 177 209 226 213 205 216 240 248 246 247
87 145 158 259 246 213 245 255 226 226 207 214 238 258 255 239 202 197 190 180 183 186 186 181 177 171 168 166 163 162 167 172 158 163 186 210 229 232 228 227 222 230 238 237
116 130 128 240 290 28 262 242 217 216 219 194 219 244 246 223 210 209 202 192 193 191 189 185 183 181 179 174 167 172 178 169 158 171 200 216 231 239 235 232 229 230 235 231
146 128 138 164 105 223 242 250 187 186 237 223 235 251 221 225 235 231 202 188 191 193 192 190 183 182 183 172 160 162 163 163 168 179 199 210 231 238 233 224 230 225 219 222
155 140 128 135 189 262 284 252 178 185 264 232 217 247 249 121 33 343 246 194 193 199 194 188 182 177 172 171 160 150 166 175 181 196 214 219 222 231 222 226 238 231 227 234
63 97 118 137 173 225 241 258 202 126 272 243 191 192 173 125 136 258 251 201 178 173 162 170 155 144 158 169 158 159 177 184 204 214 222 227 217 219 218 225 233 226 227 237
46 55 123 166 209 256 258 287 106 178 239 230 195 191 174 189 209 232 218 228 189 165 167 158 150 156 167 160 156 169 184 205 217 210 209 228 231 237 229 220 220 220 219 230
171 154 176 156 190 251 281 102 186 222 250 220 210 200 194 215 240 221 198 185 163 139 139 146 148 152 153 154 157 174 207 220 201 187 204 225 235 243 237 214 217 209 206 217
194 191 186 191 216 251 270 241 258 239 238 243 229 229 188 199 233 223 207 191 180 164 152 142 143 132 128 159 161 176 215 196 184 199 227 238 241 246 241 209 211 216 213 222
257 163 156 255 268 279 287 284 281 257 248 246 227 208 186 192 202 202 206 194 176 151 153 146 139 140 157 192 189 196 200 184 184 219 245 249 244 260 259 225 209 211 220 226
232 172 180 259 277 302 293 278 281 287 277 250 239 209 206 182 203 202 199 202 192 165 160 155 162 169 180 190 220 236 188 160 176 215 241 249 241 241 249 244 224 219 226 218
214 192 195 236 238 232 262 278 283 275 267 232 200 297 273 192 191 196 200 196 179 171 164 168 177 176 185 189 221 260 232 176 177 210 239 242 242 237 234 248 287 275 235 236